If you wish to contribute or participate in the discussions about articles you are invited to join SKYbrary as a registered user

 Actions

Abbotsford International Airport

From SKYbrary Wiki

CYXX
Airport
ICAO: CYXX – IATA: YXX
Summary
Name Abbotsford International Airport
Region North America
Territory Canada CA.gif
Location Abbotsford, British Columbia
Serving Abbotsford
Elevation 59.131 m
194 ft
194 ft59.131 m
Coordinates 49° 1' 31.00" N, 122° 21' 48.00" W
Runways
Designator Length Width Surface ROPS
1/19 1624 m5,328.084 ft
61 m200.131 ft
ASP yes/yes
01L/19R 457 m1,499.344 ft
30 m98.425 ft
GRS /
7/25 2926 m9,599.738 ft
61 m200.131 ft
PEM yes/yes


METAR
Observation CYXX 221100Z 00000KT 10SM -SHRA FEW034 OVC057 15/14 A2996 RMK CU2SC6 SLP147 DENSITY ALT 200FT
Station Abbotsford, B. C.
Date/Time 22 September 2020 11:00:00
Wind direction
Wind speed 00 kts
Lowest cloud amount few clouds
Temperature 15°C
Dew point 14°C
Humidity 93%
QNH hPa
Weather condition light showers rain

BS
Tag(s) Bird Strike
WX
Tag(s) Fog

Abbotsford International Airport

ICAO: CYXX IATA: YXX

Description

Abbotsford International Airport is located near Abbotsford, British Columbia, Canada.

Climatology

Temperate Marine climate/Oceanic climate (Köppen climate classification Cfb). Moderately cool summer and comparatively warm winter.

Maps

Terrain

Loading map...

Airport Layout

Loading map...


Accidents & Serious Incidents at or in vicinity of CYXX

None on SKYbrary